This is the latest recevied weather packets stored in our database for station/object N7ZAP. If no packets are shown the sender has not sent any weather packets the latest 10 day(s).
| Time | Temp. | Humidity | Pressure | Rain* | Wind** | Luminosity | Snow |
|---|---|---|---|---|---|---|---|
| 1776909240 | 24.44° C | 8% | 1010.7 hPa | 0 mm | - | - | - |
| 1776908937 | 24.44° C | 8% | 1010.2 hPa | 0 mm | - | - | - |
| 1776908635 | 25° C | 9% | 1010.3 hPa | 0 mm | - | - | - |
| 1776908332 | 25° C | 8% | 1010.2 hPa | 0 mm | - | - | - |
| 1776908028 | 25.56° C | 8% | 1010 hPa | 0 mm | - | - | - |
| 1776907724 | 25.56° C | 8% | 1010 hPa | 0 mm | - | - | - |
| 1776907421 | 26.11° C | 8% | 1010.1 hPa | 0 mm | - | - | - |
| 1776907118 | 26.67° C | 8% | 1010.1 hPa | 0 mm | - | - | - |
| 1776906815 | 26.67° C | 8% | 1010 hPa | 0 mm | - | - | - |
| 1776906513 | 26.67° C | 8% | 1010 hPa | 0 mm | - | - | - |
| 1776906210 | 26.67° C | 8% | 1010 hPa | 0 mm | - | - | - |
| 1776905906 | 27.22° C | 7% | 1010 hPa | 0 mm | - | - | - |
| 1776905601 | 27.22° C | 7% | 1009.8 hPa | 0 mm | - | - | - |
| 1776905298 | 26.67° C | 7% | 1010 hPa | 0 mm | - | - | - |
| 1776904995 | 27.22° C | 7% | 1010.1 hPa | 0 mm | - | - | - |
| 1776904692 | 27.22° C | 7% | 1010.1 hPa | 0 mm | - | - | - |
| 1776904389 | 27.22° C | 8% | 1010.1 hPa | 0 mm | - | - | - |
| 1776904085 | 27.78° C | 7% | 1009.8 hPa | 0 mm | - | - | - |
| 1776903781 | 27.78° C | 7% | 1009.8 hPa | 0 mm | - | - | - |
| 1776903477 | 27.78° C | 7% | 1010 hPa | 0 mm | - | - | - |
| 1776903174 | 27.78° C | 7% | 1010 hPa | 0 mm | - | - | - |
| 1776902870 | 27.78° C | 7% | 1010 hPa | 0 mm | - | - | - |
| 1776902569 | 28.33° C | 7% | 1010.4 hPa | 0 mm | - | - | - |
* Rain latest hour (hover to see other rain measurements)
** Current wind speed in m/s (hover to see current wind gust speed)